,,,PA_Meas_PMT16A,,PR_Meas_QMR101_102,,RH_Meas_QMH101,,SR_Meas_QMS101,,TA_Meas_QMH101,,GenWind,,GenWind,
date,time,status,PA,status,PR,status,RH,status,SR,status,TA,status,DirAvg,status,SpdAvg,
2010-11-09, 00:00:04,VALID,1006.1,VALID,0,INVALID,163.708,VALID,0,VALID,23.6628,VALID,349,VALID,0,
2010-11-09, 00:01:04,VALID,1006.08,VALID,0,INVALID,163.746,VALID,0.100563,VALID,23.6628,VALID,349,VALID,0,
2010-11-09, 00:02:04,VALID,1006.07,VALID,0,INVALID,163.731,VALID,0,VALID,23.6434,VALID,349,VALID,0,
2010-11-09, 00:03:04,VALID,1006.02,VALID,0,INVALID,163.723,VALID,0,VALID,23.6221,VALID,349,VALID,0,
2010-11-09, 00:04:04,VALID,1006,VALID,0,INVALID,163.708,VALID,0.100563,VALID,23.6434,VALID,349,VALID,0,
2010-11-09, 00:05:04,VALID,1006.03,VALID,0,INVALID,163.693,VALID,0.100563,VALID,23.6434,VALID,349,VALID,0,
2010-11-09, 00:06:04,VALID,1006,VALID,0,INVALID,163.685,VALID,0,VALID,23.6434,VALID,349,VALID,0,
2010-11-09, 00:07:04,VALID,1006,VALID,0,INVALID,163.693,VALID,0,VALID,23.6434,VALID,349,VALID,0,
2010-11-09, 00:08:04,VALID,1005.97,VALID,0,INVALID,163.708,VALID,0.100563,VALID,23.6434,VALID,349,VALID,0,
2010-11-09, 00:09:04,VALID,1005.94,VALID,0,INVALID,163.723,VALID,0.100563,VALID,23.6026,VALID,349,VALID,0,
2010-11-09, 00:10:04,VALID,1005.95,VALID,0,INVALID,163.723,VALID,0.100563,VALID,23.5832,VALID,349,VALID,0,
2010-11-09, 00:11:04,VALID,1005.91,VALID,0,INVALID,163.716,VALID,0,VALID,23.6044,VALID,349,VALID,0,
2010-11-09, 00:12:04,VALID,1005.9,VALID,0,INVALID,163.739,VALID,0.100563,VALID,23.585,VALID,349,VALID,0,
2010-11-09, 00:13:04,VALID,1005.91,VALID,0,INVALID,163.716,VALID,0,VALID,23.585,VALID,349,VALID,0,
2010-11-09, 00:14:04,VALID,1005.91,VALID,0,INVALID,163.739,VALID,0.100563,VALID,23.5832,VALID,349,VALID,0,
2010-11-09, 00:15:04,VALID,1005.9,VALID,0,INVALID,163.731,VALID,0,VALID,23.585,VALID,349,VALID,0.439844,
2010-11-09, 00:16:04,VALID,1005.91,VALID,0,INVALID,163.716,VALID,0.100563,VALID,23.6044,VALID,349,VALID,0.0265625,
2010-11-09, 00:17:04,VALID,1005.95,VALID,0,INVALID,163.731,VALID,0.100563,VALID,23.6044,VALID,349,VALID,0,
2010-11-09, 00:18:04,VALID,1005.91,VALID,0,INVALID,163.739,VALID,0,VALID,23.6044,VALID,349,VALID,0,
2010-11-09, 00:19:04,VALID,1005.9,VALID,0,INVALID,163.739,VALID,0.100563,VALID,23.5832,VALID,349,VALID,0,
2010-11-09, 00:20:04,VALID,1005.91,VALID,0,INVALID,163.723,VALID,0,VALID,23.585,VALID,349,VALID,0,
2010-11-09, 00:21:04,VALID,1005.9,VALID,0,INVALID,163.693,VALID,0,VALID,23.5655,VALID,349,VALID,0,
2010-11-09, 00:22:04,VALID,1005.89,VALID,0,INVALID,163.731,VALID,0.100563,VALID,23.5248,VALID,349,VALID,0,
2010-11-09, 00:23:04,VALID,1005.9,VALID,0,INVALID,163.708,VALID,0.100563,VALID,23.5053,VALID,349,VALID,0,
2010-11-09, 00:24:04,VALID,1005.89,VALID,0,INVALID,163.731,VALID,0.100563,VALID,23.5053,VALID,349,VALID,0,
2010-11-09, 00:25:04,VALID,1005.88,VALID,0,INVALID,163.716,VALID,0,VALID,23.5071,VALID,349,VALID,0,
2010-11-09, 00:26:04,VALID,1005.88,VALID,0,INVALID,163.739,VALID,0.100563,VALID,23.5248,VALID,354,VALID,0,
2010-11-09, 00:27:04,VALID,1005.89,VALID,0,INVALID,163.731,VALID,0,VALID,23.6239,VALID,67,VALID,0.585156,
2010-11-09, 00:28:04,VALID,1005.89,VALID,0,INVALID,163.701,VALID,0.100563,VALID,23.6452,VALID,70,VALID,0.404687,
2010-11-09, 00:29:04,VALID,1005.85,VALID,0,INVALID,163.701,VALID,0.100563,VALID,23.6628,VALID,70,VALID,0.244141,
2010-11-09, 00:30:04,VALID,1005.82,VALID,0,INVALID,163.723,VALID,0.100563,VALID,23.661,VALID,70,VALID,0.337891,
2010-11-09, 00:31:04,VALID,1005.81,VALID,0,INVALID,163.723,VALID,0.100563,VALID,23.6823,VALID,70,VALID,0.385156,
2010-11-09, 00:32:04,VALID,1005.8,VALID,0,INVALID,163.708,VALID,0.100563,VALID,23.6823,VALID,70,VALID,0.390625,
2010-11-09, 00:33:04,VALID,1005.8,VALID,0,INVALID,163.716,VALID,0.100563,VALID,23.7017,VALID,70,VALID,0.3875,
2010-11-09, 00:34:04,VALID,1005.8,VALID,0,INVALID,163.723,VALID,0.100563,VALID,23.6823,VALID,70,VALID,0.323828,
2010-11-09, 00:35:04,VALID,1005.81,VALID,0,INVALID,163.716,VALID,0,VALID,23.6823,VALID,70,VALID,0.366406,
2010-11-09, 00:36:04,VALID,1005.8,VALID,0,INVALID,163.716,VALID,0.100563,VALID,23.7,VALID,70,VALID,0.379297,
2010-11-09, 00:37:04,VALID,1005.79,VALID,0,INVALID,163.693,VALID,0,VALID,23.7017,VALID,70,VALID,0.284375,
2010-11-09, 00:38:04,VALID,1005.81,VALID,0,INVALID,163.701,VALID,0.100563,VALID,23.723,VALID,70,VALID,0.260547,
2010-11-09, 00:39:04,VALID,1005.82,VALID,0,INVALID,163.708,VALID,0,VALID,23.7194,VALID,70,VALID,0.328906,
2010-11-09, 00:40:04,VALID,1005.83,VALID,0,INVALID,163.708,VALID,0.100563,VALID,23.7601,VALID,70,VALID,0.299219,
2010-11-09, 00:41:04,VALID,1005.84,VALID,0,INVALID,163.701,VALID,0,VALID,23.7991,VALID,70,VALID,0.241797,
2010-11-09, 00:42:04,VALID,1005.84,VALID,0,INVALID,163.716,VALID,0.100563,VALID,23.8362,VALID,70,VALID,0.20625,
2010-11-09, 00:43:04,VALID,1005.82,VALID,0,INVALID,163.693,VALID,0,VALID,23.8787,VALID,70,VALID,0.413281,
2010-11-09, 00:44:04,VALID,1005.81,VALID,0,INVALID,163.678,VALID,0.100563,VALID,23.8769,VALID,70,VALID,0.477344,
2010-11-09, 00:45:04,VALID,1005.81,VALID,0,INVALID,163.678,VALID,0,VALID,23.8751,VALID,70,VALID,0.371484,
2010-11-09, 00:46:04,VALID,1005.82,VALID,0,INVALID,163.708,VALID,0.100563,VALID,23.914,VALID,70,VALID,0.345313,
2010-11-09, 00:47:04,VALID,1005.81,VALID,0,INVALID,163.723,VALID,0.100563,VALID,23.9353,VALID,56,VALID,0.295703,
2010-11-09, 00:48:04,VALID,1005.81,VALID,0,INVALID,163.701,VALID,0,VALID,23.9159,VALID,56,VALID,0.5,
2010-11-09, 00:49:04,VALID,1005.78,VALID,0,INVALID,163.678,VALID,0.100563,VALID,23.9353,VALID,54,VALID,0.353125,
2010-11-09, 00:50:04,VALID,1005.78,VALID,0,INVALID,163.716,VALID,0.100563,VALID,23.9159,VALID,54,VALID,0.378906,
2010-11-09, 00:51:04,VALID,1005.76,VALID,0,INVALID,163.693,VALID,0.100563,VALID,23.8964,VALID,54,VALID,0.340234,
2010-11-09, 00:52:04,VALID,1005.73,VALID,0,INVALID,163.67,VALID,0.100563,VALID,23.9371,VALID,54,VALID,0.335938,
2010-11-09, 00:53:04,VALID,1005.73,VALID,0,INVALID,163.685,VALID,0,VALID,23.914,VALID,55,VALID,0.654297,
2010-11-09, 00:54:04,VALID,1005.75,VALID,0,INVALID,163.716,VALID,0.100563,VALID,23.9548,VALID,56,VALID,0.611719,
2010-11-09, 00:55:04,VALID,1005.74,VALID,0,INVALID,163.693,VALID,0.100563,VALID,23.9919,VALID,50,VALID,0.469531,
2010-11-09, 00:56:04,VALID,1005.71,VALID,0,INVALID,163.67,VALID,0.100563,VALID,23.9937,VALID,31,VALID,0.422656,
2010-11-09, 00:57:04,VALID,1005.69,VALID,0,INVALID,163.701,VALID,0.100563,VALID,23.9724,VALID,31,VALID,0.61875,
2010-11-09, 00:58:04,VALID,1005.67,VALID,0,INVALID,163.693,VALID,0,VALID,23.9566,VALID,31,VALID,0.366016,
2010-11-09, 00:59:04,VALID,1005.68,VALID,0,INVALID,163.693,VALID,0,VALID,23.9159,VALID,31,VALID,0.619141,
2010-11-09, 01:00:04,VALID,1005.67,VALID,0,INVALID,163.723,VALID,0,VALID,23.8964,VALID,31,VALID,0.608594,
2010-11-09, 01:01:04,VALID,1005.68,VALID,0,INVALID,163.701,VALID,0,VALID,23.8787,VALID,31,VALID,0.504297,
2010-11-09, 01:02:04,VALID,1005.7,VALID,0,INVALID,163.739,VALID,0,VALID,23.8964,VALID,31,VALID,0.316797,
2010-11-09, 01:03:04,VALID,1005.68,VALID,0,INVALID,163.701,VALID,0,VALID,23.8982,VALID,31,VALID,0.365625,
2010-11-09, 01:04:04,VALID,1005.65,VALID,0,INVALID,163.723,VALID,0,VALID,23.8982,VALID,47,VALID,0.452734,
2010-11-09, 01:05:04,VALID,1005.65,VALID,0,INVALID,163.716,VALID,0,VALID,23.8964,VALID,46,VALID,0.389062,
2010-11-09, 01:06:04,VALID,1005.66,VALID,0,INVALID,163.708,VALID,0,VALID,23.8964,VALID,46,VALID,0.396875,
2010-11-09, 01:07:04,VALID,1005.68,VALID,0,INVALID,163.693,VALID,0,VALID,23.9371,VALID,46,VALID,0.377734,
2010-11-09, 01:08:04,VALID,1005.69,VALID,0,INVALID,163.723,VALID,0,VALID,23.9566,VALID,46,VALID,0.317969,
2010-11-09, 01:09:04,VALID,1005.72,VALID,0,INVALID,163.678,VALID,0,VALID,23.9761,VALID,46,VALID,0.308594,
2010-11-09, 01:10:04,VALID,1005.71,VALID,0,INVALID,163.693,VALID,0,VALID,23.9955,VALID,43,VALID,0.474609,
2010-11-09, 01:11:04,VALID,1005.74,VALID,0,INVALID,163.701,VALID,0,VALID,24.0168,VALID,43,VALID,0.415625,
2010-11-09, 01:12:04,VALID,1005.71,VALID,0,INVALID,163.701,VALID,0,VALID,23.9742,VALID,43,VALID,0.424609,
2010-11-09, 01:13:04,VALID,1005.72,VALID,0,INVALID,163.708,VALID,0,VALID,23.9548,VALID,43,VALID,0.394141,
2010-11-09, 01:14:04,VALID,1005.71,VALID,0,INVALID,163.716,VALID,0,VALID,23.9937,VALID,43,VALID,0,
2010-11-09, 01:15:04,VALID,1005.73,VALID,0,INVALID,163.731,VALID,0,VALID,24.0114,VALID,43,VALID,0,
2010-11-09, 01:16:04,VALID,1005.73,VALID,0,INVALID,163.67,VALID,0,VALID,24.0132,VALID,43,VALID,0.28125,
2010-11-09, 01:17:04,VALID,1005.72,VALID,0,INVALID,163.67,VALID,0.100563,VALID,24.0326,VALID,43,VALID,0.284766,
2010-11-09, 01:18:04,VALID,1005.72,VALID,0,INVALID,163.655,VALID,0,VALID,24.0326,VALID,43,VALID,0.425781,
2010-11-09, 01:19:04,VALID,1005.73,VALID,0,INVALID,163.685,VALID,0,VALID,24.0326,VALID,43,VALID,0.232812,
2010-11-09, 01:20:04,VALID,1005.71,VALID,0,INVALID,163.685,VALID,0,VALID,24.0114,VALID,43,VALID,0.164453,
2010-11-09, 01:21:04,VALID,1005.75,VALID,0,INVALID,163.693,VALID,0,VALID,24.0326,VALID,43,VALID,0.301562,
2010-11-09, 01:22:04,VALID,1005.74,VALID,0,INVALID,163.701,VALID,0,VALID,24.0326,VALID,43,VALID,0.188672,
2010-11-09, 01:23:04,VALID,1005.72,VALID,0,INVALID,163.685,VALID,0,VALID,23.9919,VALID,43,VALID,0.683594,
2010-11-09, 01:24:04,VALID,1005.71,VALID,0,INVALID,163.685,VALID,0.100563,VALID,23.9937,VALID,43,VALID,0.378125,
2010-11-09, 01:25:04,VALID,1005.71,VALID,0,INVALID,163.701,VALID,0,VALID,23.9742,VALID,49,VALID,0.619531,
2010-11-09, 01:26:04,VALID,1005.68,VALID,0,INVALID,163.693,VALID,0,VALID,23.9548,VALID,49,VALID,0.322656,
2010-11-09, 01:27:04,VALID,1005.7,VALID,0,INVALID,163.701,VALID,0.100563,VALID,23.9548,VALID,47,VALID,0.535937,
2010-11-09, 01:28:04,VALID,1005.68,VALID,0,INVALID,163.708,VALID,0,VALID,23.9353,VALID,47,VALID,0.239453,
2010-11-09, 01:29:04,VALID,1005.66,VALID,0,INVALID,163.701,VALID,0,VALID,23.9159,VALID,47,VALID,0.00273437,
2010-11-09, 01:30:04,VALID,1005.65,VALID,0,INVALID,163.739,VALID,0,VALID,23.9159,VALID,47,VALID,0,
2010-11-09, 01:31:04,VALID,1005.63,VALID,0,INVALID,163.685,VALID,0,VALID,23.9159,VALID,47,VALID,0.164453,
2010-11-09, 01:32:04,VALID,1005.65,VALID,0,INVALID,163.685,VALID,0,VALID,23.9159,VALID,47,VALID,0.329297,
2010-11-09, 01:33:04,VALID,1005.61,VALID,0,INVALID,163.685,VALID,0,VALID,23.9159,VALID,57,VALID,0.407813,
2010-11-09, 01:34:04,VALID,1005.59,VALID,0,INVALID,163.723,VALID,0,VALID,23.914,VALID,55,VALID,0.580469,
2010-11-09, 01:35:04,VALID,1005.55,VALID,0,INVALID,163.701,VALID,0,VALID,23.9548,VALID,54,VALID,0.310547,
2010-11-09, 01:36:04,VALID,1005.54,VALID,0,INVALID,163.716,VALID,0,VALID,23.9742,VALID,37,VALID,0.666797,
2010-11-09, 01:37:04,VALID,1005.51,VALID,0,INVALID,163.716,VALID,0,VALID,23.9548,VALID,37,VALID,0.61875,
2010-11-09, 01:38:04,VALID,1005.48,VALID,0,INVALID,163.701,VALID,0.100563,VALID,23.8946,VALID,34,VALID,0.577344,
2010-11-09, 01:39:04,VALID,1005.47,VALID,0,INVALID,163.678,VALID,0,VALID,23.8769,VALID,33,VALID,0.727344,
2010-11-09, 01:40:04,VALID,1005.47,VALID,0,INVALID,163.731,VALID,0,VALID,23.7973,VALID,33,VALID,0.750391,
2010-11-09, 01:41:04,VALID,1005.47,VALID,0,INVALID,163.701,VALID,0,VALID,23.8203,VALID,34,VALID,0.560938,
2010-11-09, 01:42:04,VALID,1005.44,VALID,0,INVALID,163.716,VALID,0,VALID,23.7796,VALID,34,VALID,0.379297,
2010-11-09, 01:43:04,VALID,1005.45,VALID,0,INVALID,163.708,VALID,0,VALID,23.7212,VALID,34,VALID,0.294141,
2010-11-09, 01:44:04,VALID,1005.42,VALID,0,INVALID,163.723,VALID,0,VALID,23.7407,VALID,33,VALID,0.537109,
2010-11-09, 01:45:04,VALID,1005.42,VALID,0,INVALID,163.716,VALID,0.100563,VALID,23.7389,VALID,34,VALID,0.3375,
2010-11-09, 01:46:04,VALID,1005.38,VALID,0,INVALID,163.708,VALID,0,VALID,23.7796,VALID,34,VALID,0.465625,
2010-11-09, 01:47:04,VALID,1005.38,VALID,0,INVALID,163.701,VALID,0,VALID,23.7991,VALID,34,VALID,0.694141,
2010-11-09, 01:48:04,VALID,1005.36,VALID,0,INVALID,163.701,VALID,0,VALID,23.838,VALID,34,VALID,0.5625,
2010-11-09, 01:49:04,VALID,1005.35,VALID,0,INVALID,163.708,VALID,0,VALID,23.8185,VALID,34,VALID,0.647656,
2010-11-09, 01:50:04,VALID,1005.35,VALID,0,INVALID,163.716,VALID,0,VALID,23.7991,VALID,34,VALID,0.439844,
2010-11-09, 01:51:04,VALID,1005.31,VALID,0,INVALID,163.708,VALID,0,VALID,23.7796,VALID,34,VALID,0.521875,
2010-11-09, 01:52:04,VALID,1005.26,VALID,0,INVALID,163.716,VALID,0,VALID,23.7796,VALID,34,VALID,0.440234,
2010-11-09, 01:53:04,VALID,1005.22,VALID,0,INVALID,163.716,VALID,0.100563,VALID,23.7796,VALID,34,VALID,0.473437,
2010-11-09, 01:54:04,VALID,1005.2,VALID,0,INVALID,163.731,VALID,0,VALID,23.7796,VALID,34,VALID,0.329688,
2010-11-09, 01:55:04,VALID,1005.19,VALID,0,INVALID,163.693,VALID,0,VALID,23.8009,VALID,34,VALID,0.38125,
2010-11-09, 01:56:04,VALID,1005.14,VALID,0,INVALID,163.693,VALID,0,VALID,23.8185,VALID,34,VALID,0.395703,
2010-11-09, 01:57:04,VALID,1005.13,VALID,0,INVALID,163.716,VALID,0,VALID,23.8185,VALID,34,VALID,0.170703,
2010-11-09, 01:58:04,VALID,1005.11,VALID,0,INVALID,163.723,VALID,0,VALID,23.8398,VALID,34,VALID,0.169531,
2010-11-09, 01:59:04,VALID,1005.09,VALID,0,INVALID,163.701,VALID,0,VALID,23.8398,VALID,34,VALID,0.410156,
2010-11-09, 02:00:04,VALID,1005.07,VALID,0,INVALID,163.723,VALID,0,VALID,23.838,VALID,34,VALID,0.488281,
2010-11-09, 02:01:04,VALID,1005.06,VALID,0,INVALID,163.723,VALID,0,VALID,23.8575,VALID,34,VALID,0.312109,
2010-11-09, 02:02:04,VALID,1005.04,VALID,0,INVALID,163.693,VALID,0,VALID,23.9159,VALID,34,VALID,0.446875,
2010-11-09, 02:03:04,VALID,1004.99,VALID,0,INVALID,163.723,VALID,0,VALID,23.9353,VALID,34,VALID,0.285937,
2010-11-09, 02:04:04,VALID,1004.99,VALID,0,INVALID,163.701,VALID,0,VALID,23.9566,VALID,34,VALID,0.429688,
2010-11-09, 02:05:04,VALID,1004.97,VALID,0,INVALID,163.678,VALID,0,VALID,23.9548,VALID,34,VALID,0.592578,
2010-11-09, 02:06:04,VALID,1004.97,VALID,0,INVALID,163.708,VALID,0,VALID,23.9548,VALID,34,VALID,0.401563,
2010-11-09, 02:07:04,VALID,1004.93,VALID,0,INVALID,163.708,VALID,0,VALID,23.9159,VALID,34,VALID,0.339453,
2010-11-09, 02:08:04,VALID,1004.92,VALID,0,INVALID,163.716,VALID,0,VALID,23.8946,VALID,34,VALID,0.368359,
2010-11-09, 02:09:04,VALID,1004.93,VALID,0,INVALID,163.701,VALID,0,VALID,23.8964,VALID,34,VALID,0.474609,
2010-11-09, 02:10:04,VALID,1004.92,VALID,0,INVALID,163.716,VALID,0,VALID,23.8982,VALID,34,VALID,0.533203,
2010-11-09, 02:11:04,VALID,1004.89,VALID,0,INVALID,163.716,VALID,0,VALID,23.9548,VALID,32,VALID,0.373437,
2010-11-09, 02:12:04,VALID,1004.88,VALID,0,INVALID,163.693,VALID,0,VALID,23.9937,VALID,32,VALID,0.398828,
2010-11-09, 02:13:04,VALID,1004.85,VALID,0,INVALID,163.685,VALID,0,VALID,24.0326,VALID,32,VALID,0.521484,
2010-11-09, 02:14:04,VALID,1004.84,VALID,0,INVALID,163.678,VALID,0,VALID,24.0521,VALID,32,VALID,0.502734,
2010-11-09, 02:15:04,VALID,1004.81,VALID,0,INVALID,163.701,VALID,0.100563,VALID,24.0308,VALID,32,VALID,0.488281,
2010-11-09, 02:16:04,VALID,1004.82,VALID,0,INVALID,163.693,VALID,0,VALID,24.0716,VALID,32,VALID,0.569531,
2010-11-09, 02:17:04,VALID,1004.81,VALID,0,INVALID,163.701,VALID,0,VALID,24.0521,VALID,32,VALID,0.542578,
2010-11-09, 02:18:04,VALID,1004.81,VALID,0,INVALID,163.708,VALID,0,VALID,24.0326,VALID,32,VALID,0.216016,
2010-11-09, 02:19:04,VALID,1004.79,VALID,0,INVALID,163.701,VALID,0,VALID,23.9742,VALID,32,VALID,0.369141,
2010-11-09, 02:20:04,VALID,1004.78,VALID,0,INVALID,163.693,VALID,0,VALID,23.953,VALID,32,VALID,0.5875,
2010-11-09, 02:21:04,VALID,1004.8,VALID,0,INVALID,163.708,VALID,0,VALID,23.9548,VALID,30,VALID,0.716406,
2010-11-09, 02:22:04,VALID,1004.77,VALID,0,INVALID,163.708,VALID,0,VALID,23.9955,VALID,32,VALID,0.612891,
2010-11-09, 02:23:04,VALID,1004.77,VALID,0,INVALID,163.723,VALID,0,VALID,23.9548,VALID,32,VALID,0.455078,
2010-11-09, 02:24:04,VALID,1004.74,VALID,0,INVALID,163.708,VALID,0,VALID,23.8946,VALID,32,VALID,0.412109,
2010-11-09, 02:25:04,VALID,1004.7,VALID,0,INVALID,163.693,VALID,0,VALID,23.9548,VALID,27,VALID,0.964844,
2010-11-09, 02:26:04,VALID,1004.71,VALID,0,INVALID,163.708,VALID,0,VALID,23.9742,VALID,28,VALID,0.446484,
2010-11-09, 02:27:04,VALID,1004.71,VALID,0,INVALID,163.708,VALID,0,VALID,23.9742,VALID,28,VALID,0.451172,
2010-11-09, 02:28:04,VALID,1004.68,VALID,0,INVALID,163.701,VALID,0,VALID,23.9742,VALID,28,VALID,0.3875,
2010-11-09, 02:29:04,VALID,1004.69,VALID,0,INVALID,163.678,VALID,0,VALID,23.9937,VALID,28,VALID,0.196484,
2010-11-09, 02:30:04,VALID,1004.7,VALID,0,INVALID,163.716,VALID,0,VALID,23.9919,VALID,28,VALID,0.354688,
2010-11-09, 02:31:04,VALID,1004.7,VALID,0,INVALID,163.716,VALID,0,VALID,24.0326,VALID,28,VALID,0.0558594,
2010-11-09, 02:32:04,VALID,1004.71,VALID,0,INVALID,163.708,VALID,0,VALID,24.0521,VALID,28,VALID,0.0855469,
2010-11-09, 02:33:04,VALID,1004.67,VALID,0,INVALID,163.708,VALID,0,VALID,24.0697,VALID,27,VALID,0.617578,
2010-11-09, 02:34:04,VALID,1004.67,VALID,0,INVALID,163.685,VALID,0,VALID,24.1105,VALID,27,VALID,0.784375,
2010-11-09, 02:35:04,VALID,1004.63,VALID,0,INVALID,163.662,VALID,0,VALID,24.091,VALID,27,VALID,0.561328,
2010-11-09, 02:36:04,VALID,1004.61,VALID,0,INVALID,163.685,VALID,0,VALID,24.091,VALID,27,VALID,0.495313,
2010-11-09, 02:37:04,VALID,1004.62,VALID,0,INVALID,163.685,VALID,0,VALID,24.0716,VALID,27,VALID,0.216016,
2010-11-09, 02:38:04,VALID,1004.62,VALID,0,INVALID,163.67,VALID,0,VALID,24.0308,VALID,27,VALID,0.350781,
2010-11-09, 02:39:04,VALID,1004.62,VALID,0,INVALID,163.708,VALID,0,VALID,24.0521,VALID,27,VALID,0.333203,
2010-11-09, 02:40:04,VALID,1004.62,VALID,0,INVALID,163.701,VALID,0,VALID,24.0521,VALID,27,VALID,0.377344,
2010-11-09, 02:41:04,VALID,1004.62,VALID,0,INVALID,163.708,VALID,0,VALID,24.0716,VALID,27,VALID,0.335547,
2010-11-09, 02:42:04,VALID,1004.62,VALID,0,INVALID,163.701,VALID,0,VALID,24.091,VALID,27,VALID,0.207813,
2010-11-09, 02:43:04,VALID,1004.59,VALID,0,INVALID,163.708,VALID,0,VALID,24.091,VALID,27,VALID,0.312891,
2010-11-09, 02:44:04,VALID,1004.58,VALID,0,INVALID,163.685,VALID,0,VALID,24.091,VALID,27,VALID,0.369141,
2010-11-09, 02:45:04,VALID,1004.54,VALID,0,INVALID,163.708,VALID,0.100563,VALID,24.1105,VALID,27,VALID,0.351172,
2010-11-09, 02:46:04,VALID,1004.53,VALID,0,INVALID,163.678,VALID,0.100563,VALID,24.091,VALID,27,VALID,0.525781,
2010-11-09, 02:47:04,VALID,1004.55,VALID,0,INVALID,163.693,VALID,0,VALID,24.1087,VALID,29,VALID,0.175391,
2010-11-09, 02:48:04,VALID,1004.52,VALID,0,INVALID,163.693,VALID,0.100563,VALID,24.1087,VALID,28,VALID,0.464063,
2010-11-09, 02:49:04,VALID,1004.53,VALID,0,INVALID,163.685,VALID,0,VALID,24.1318,VALID,29,VALID,0.242578,
2010-11-09, 02:50:04,VALID,1004.54,VALID,0,INVALID,163.678,VALID,0,VALID,24.0716,VALID,29,VALID,0.536328,
2010-11-09, 02:51:04,VALID,1004.54,VALID,0,INVALID,163.693,VALID,0.100563,VALID,24.0326,VALID,29,VALID,0.606641,
2010-11-09, 02:52:04,VALID,1004.53,VALID,0,INVALID,163.708,VALID,0,VALID,23.9937,VALID,28,VALID,0.594531,
2010-11-09, 02:53:04,VALID,1004.52,VALID,0,INVALID,163.693,VALID,0.100563,VALID,23.9353,VALID,28,VALID,0.396875,
2010-11-09, 02:54:04,VALID,1004.48,VALID,0,INVALID,163.708,VALID,0,VALID,23.8769,VALID,29,VALID,0.604297,
2010-11-09, 02:55:04,VALID,1004.47,VALID,0,INVALID,163.701,VALID,0,VALID,23.838,VALID,29,VALID,0.548437,
2010-11-09, 02:56:04,VALID,1004.44,VALID,0,INVALID,163.723,VALID,0.100563,VALID,23.8575,VALID,28,VALID,0.533594,
2010-11-09, 02:57:04,VALID,1004.44,VALID,0,INVALID,163.701,VALID,0,VALID,23.8185,VALID,28,VALID,0.619141,
2010-11-09, 02:58:04,VALID,1004.43,VALID,0,INVALID,163.716,VALID,0.100563,VALID,23.7796,VALID,29,VALID,0.346484,
2010-11-09, 02:59:04,VALID,1004.42,VALID,0,INVALID,163.716,VALID,0.100563,VALID,23.7389,VALID,29,VALID,0.428516,
2010-11-09, 03:00:04,VALID,1004.44,VALID,0,INVALID,163.701,VALID,0.100563,VALID,23.7194,VALID,28,VALID,0.366016,
2010-11-09, 03:01:04,VALID,1004.45,VALID,0,INVALID,163.723,VALID,0.100563,VALID,23.7407,VALID,29,VALID,0.296875,
2010-11-09, 03:02:04,VALID,1004.44,VALID,0,INVALID,163.723,VALID,0.100563,VALID,23.7796,VALID,29,VALID,0.201172,
2010-11-09, 03:03:04,VALID,1004.49,VALID,0,INVALID,163.739,VALID,0.100563,VALID,23.7991,VALID,29,VALID,0.162109,
2010-11-09, 03:04:04,VALID,1004.48,VALID,0,INVALID,163.693,VALID,0.100563,VALID,23.7991,VALID,29,VALID,0.448438,
2010-11-09, 03:05:04,VALID,1004.45,VALID,0,INVALID,163.701,VALID,0,VALID,23.8185,VALID,29,VALID,0.357422,
2010-11-09, 03:06:04,VALID,1004.44,VALID,0,INVALID,163.708,VALID,0,VALID,23.838,VALID,29,VALID,0.546484,
2010-11-09, 03:07:04,VALID,1004.41,VALID,0,INVALID,163.739,VALID,0.100563,VALID,23.8787,VALID,29,VALID,0.496484,
2010-11-09, 03:08:04,VALID,1004.44,VALID,0,INVALID,163.708,VALID,0,VALID,23.838,VALID,30,VALID,0.583594,
2010-11-09, 03:09:04,VALID,1004.4,VALID,0,INVALID,163.723,VALID,0.100563,VALID,23.7991,VALID,30,VALID,0.56875,
2010-11-09, 03:10:04,VALID,1004.4,VALID,0,INVALID,163.731,VALID,0.100563,VALID,23.7601,VALID,30,VALID,0.441406,
2010-11-09, 03:11:04,VALID,1004.37,VALID,0,INVALID,163.708,VALID,0.100563,VALID,23.7017,VALID,30,VALID,0.375781,
2010-11-09, 03:12:04,VALID,1004.37,VALID,0,INVALID,163.723,VALID,0,VALID,23.6434,VALID,30,VALID,0.344141,
2010-11-09, 03:13:04,VALID,1004.4,VALID,0,INVALID,163.716,VALID,0.100563,VALID,23.6434,VALID,24,VALID,0.698438,
2010-11-09, 03:14:04,VALID,1004.39,VALID,0,INVALID,163.731,VALID,0.100563,VALID,23.5832,VALID,17,VALID,0.483984,
2010-11-09, 03:15:04,VALID,1004.37,VALID,0,INVALID,163.746,VALID,0,VALID,23.5443,VALID,17,VALID,0.569531,
2010-11-09, 03:16:04,VALID,1004.41,VALID,0,INVALID,163.731,VALID,0,VALID,23.585,VALID,37,VALID,0.552734,
2010-11-09, 03:17:04,VALID,1004.39,VALID,0,INVALID,163.762,VALID,0,VALID,23.585,VALID,37,VALID,0.383203,
2010-11-09, 03:18:04,VALID,1004.39,VALID,0,INVALID,163.731,VALID,0.100563,VALID,23.6044,VALID,37,VALID,0.557031,
2010-11-09, 03:19:04,VALID,1004.39,VALID,0,INVALID,163.693,VALID,0,VALID,23.6044,VALID,53,VALID,0.594531,
2010-11-09, 03:20:04,VALID,1004.39,VALID,0,INVALID,163.731,VALID,0,VALID,23.6434,VALID,31,VALID,0.447266,
2010-11-09, 03:21:04,VALID,1004.39,VALID,0,INVALID,163.708,VALID,0,VALID,23.6628,VALID,29,VALID,0.555078,
2010-11-09, 03:22:04,VALID,1004.36,VALID,0,INVALID,163.723,VALID,0.100563,VALID,23.6628,VALID,28,VALID,0.5125,
2010-11-09, 03:23:04,VALID,1004.36,VALID,0,INVALID,163.716,VALID,0.100563,VALID,23.6628,VALID,28,VALID,0.497266,
2010-11-09, 03:24:04,VALID,1004.36,VALID,0,INVALID,163.723,VALID,0,VALID,23.6628,VALID,28,VALID,0.226172,
2010-11-09, 03:25:04,VALID,1004.34,VALID,0,INVALID,163.731,VALID,0.100563,VALID,23.6434,VALID,37,VALID,0.465234,
2010-11-09, 03:26:04,VALID,1004.32,VALID,0,INVALID,163.731,VALID,0,VALID,23.6221,VALID,53,VALID,0.446094,
2010-11-09, 03:27:04,VALID,1004.3,VALID,0,INVALID,163.731,VALID,0,VALID,23.6434,VALID,53,VALID,0.235156,
2010-11-09, 03:28:04,VALID,1004.29,VALID,0,INVALID,163.716,VALID,0.100563,VALID,23.6434,VALID,57,VALID,0.201953,
2010-11-09, 03:29:04,VALID,1004.28,VALID,0,INVALID,163.716,VALID,0.100563,VALID,23.6026,VALID,57,VALID,0.41875,
2010-11-09, 03:30:04,VALID,1004.28,VALID,0,INVALID,163.723,VALID,0,VALID,23.585,VALID,54,VALID,0.484766,
2010-11-09, 03:31:04,VALID,1004.28,VALID,0,INVALID,163.731,VALID,0,VALID,23.585,VALID,36,VALID,0.440234,
2010-11-09, 03:32:04,VALID,1004.29,VALID,0,INVALID,163.708,VALID,0.100563,VALID,23.5637,VALID,35,VALID,0.404297,
2010-11-09, 03:33:04,VALID,1004.28,VALID,0,INVALID,163.716,VALID,0,VALID,23.5266,VALID,35,VALID,0.441406,
2010-11-09, 03:34:04,VALID,1004.26,VALID,0,INVALID,163.716,VALID,0.100563,VALID,23.5071,VALID,35,VALID,0.263281,
2010-11-09, 03:35:04,VALID,1004.25,VALID,0,INVALID,163.731,VALID,0,VALID,23.5071,VALID,34,VALID,0.603906,
2010-11-09, 03:36:04,VALID,1004.23,VALID,0,INVALID,163.746,VALID,0.100563,VALID,23.5071,VALID,34,VALID,0.447656,
2010-11-09, 03:37:04,VALID,1004.25,VALID,0,INVALID,163.739,VALID,0,VALID,23.546,VALID,36,VALID,0.452344,
2010-11-09, 03:38:04,VALID,1004.24,VALID,0,INVALID,163.723,VALID,0,VALID,23.585,VALID,41,VALID,0.433594,
2010-11-09, 03:39:04,VALID,1004.22,VALID,0,INVALID,163.708,VALID,0.100563,VALID,23.6628,VALID,59,VALID,0.0761719,